Location: Les Coudrans
(46.1056°N, 1.1158°W)
Time: 21:30:45
(UTC+00:00)

Cosmos 1602 - Pass Details

Date: 03 March 2021
Orbit: 512 x 534 km, 82.5° (Epoch: 22 April)

Event Time Altitude Azimuth Distance (km) Brightness Sun altitude
Rises 18:39:46 0° 185° (S) 2,647 7.4 -8.8°
Reaches altitude 10° 18:41:53 10° 185° (S) 1,767 6.5 -9.1°
Maximum altitude 18:45:46 83° 98° (E) 541 3.7 -9.8°
Drops below altitude 10° 18:49:43 10° 11° (N) 1,794 6.3 -10.5°
Sets 18:51:53 0° 10° (N) 2,692 7.3 -10.9°
